Regional Weather Roundup
Issued by NWS Charleston, SC

Current Version | Previous Version | Graphics & Text | Print | Product List | Glossary On
Versions: 1 2 3 4 5 6 7 8 9 10 11 12 13 14 15 16 17 18 19 20 21 22 23 24 25 26 27 28 29 30 31 32 33 34 35 36 37 38 39 40 41 42 43 44 45 46 47 48 49 50
000
ASUS42 KCHS 232010
RWRCHS

REGIONAL WEATHER ROUNDUP
NATIONAL WEATHER SERVICE CHARLESTON SC
400 PM EDT WED JUL 23 2014

NOTE: "FAIR" INDICATES FEW OR NO CLOUDS BELOW 12,000 FEET WITH NO
SIGNIFICANT WEATHER AND/OR OBSTRUCTIONS TO VISIBILITY.

NOT ALL STATIONS ARE QUALITY CONTROLLED BY THE NATIONAL
WEATHER SERVICE. USE DATA WITH CAUTION...ESPECIALLY
DEWPOINT OBSERVATIONS.

SCZ027-030-031-034>040-042>050-232100-
...SOUTH CAROLINA...

CITY           SKY/WX    TMP DP  RH WIND       PRES   REMARKS
N CHARLESTON   LGT RAIN  87  74  64 SW10G16   30.01F FOG     HX  95
WATERFRONT PRK NOT AVBL
FORT JOHNSON   NOT AVBL
MOUNT PLEASANT FAIR      88  75  66 S13       30.01F HX  97
JOHNS ISLAND   CLEAR     88  66  48 S12       30.02F HX  90
PINOPOLIS        N/A     93  73  52 CALM      29.95F HX 102
MONCKS CORNER    N/A     91  75  59 S6        30.00F HX 102
SUMMERVILLE    MOCLDY    88  77  70 SW5       30.02F HX 100
BEAUFORT MCAS  PTSUNNY   88  75  65 S7        30.01F HX  97
BEAUFORT ARPT  FAIR      88  77  70 SE6       30.01F HX 100
HILTON HEAD IS MOSUNNY   88  77  70 SE6       30.04F HX 100
GEORGETOWN     NOT AVBL
WALTERBORO     PTCLDY    88  70  55 CALM      30.02F HX  92
ORANGEBURG     MOSUNNY   91  70  49 SW8       30.01F HX  96
BARNWELL       FAIR      91  72  52 S7        30.01F HX  98
AIKEN          MOCLDY    86  77  74 S5        30.06F HX  97
MANNING        FAIR      91  75  59 SW6       29.99F HX 102
KINGSTREE      NOT AVBL
COLUMBIA       MOSUNNY   92  69  47 SW8       29.99F HX  97
SUMTER         NOT AVBL
FLORENCE       MOSUNNY   92  72  51 VRB7      29.98F HX  99
MYRTLE BEACH   PTSUNNY   86  73  66 S17       30.00F HX  93
N MYRTLE BEACH SUNNY     86  75  69 S10       30.00F HX  95

$$

GAZ063-065-086>088-099>101-113>116-118-119-134-136>141-150-232100-
...GEORGIA...

CITY           SKY/WX    TMP DP  RH WIND       PRES   REMARKS
SAVANNAH ARPT  PTSUNNY   89  75  63 SE13      30.02F HX  99
HUNTER AAF     PTSUNNY   87  76  68 S8        30.01S HX  97
FORT STEWART   MOSUNNY   89  73  57 VRB1      30.01F HX  97
STATESBORO     NOT AVBL
SYLVANIA       PTCLDY    91  74  58 W3        30.02F HX 101
CLAXTON        FAIR      91  73  55 S3        30.01F HX 100
THOMSON        SUNNY     90  77  66 CALM      30.06F HX 102
AUGUSTA-BUSH   MOSUNNY   92  70  48 SW7       29.99F HX  97
AUGUSTA-DANIEL PTSUNNY   89  72  56 S13       30.02F HX  96
SWAINSBORO     CLOUDY    91  75  59 S8        30.03F HX 102
VIDALIA          N/A     91  73  55 CALM      30.02F HX 100
ALMA           SUNNY     93  65  39 CALM      30.02F HX  95
WAYCROSS       MOSUNNY   95  72  46 SW7       30.02F HX 103
JESUP          NOT AVBL
BRUNSWICK      MOSUNNY   91  73  55 CALM      30.03F HX 100
SAINT SIMONS   MOSUNNY   87  74  64 SE12      30.03F HX  95

$$

SCZ027-028-034-036>038-045-046-048>050-GAZ119-141-232100-
...LAKE AND SUPPLEMENTAL COASTAL OBSERVATIONS...

STATION/POSITION TIME  TEMP    WIND        PRES    WAVE   SWELL
                       AIR SEA DIR/SP/G            HT/PER HT/PER/DIR
                 (UTC) (F)     (DEG/KT/KT) (MB)    (FT/S) (FT/S/D)
UPR LAKE MARION  NOT AVBL
WINYAH BAY       1900   85     140/ 10     1016.0F
LAKE MURRAY      1900   86     240/  6/  7 1015.6F
ACE BASIN NERRS  1900   88     170/  2     1018.0S
FORT PULASKI     2000   86     120/  6/ 11 1017.2F
SAPELO ISLAND    1900   93     130/  8     1018.0F

$$

ANZ835-935-AMZ111-154-330-350-352-354-374-450-454-472-232100-
...C-MAN AND BUOY OBSERVATIONS...

STATION/POSITION TIME  TEMP    WIND        PRES    WAVE   SWELL
                       AIR SEA DIR/SP/G            HT/PER HT/PER/DIR
                 (UTC) (F)     (DEG/KT/KT) (MB)    (FT/S) (FT/S/D)
FOLLY BEACH CMAN 1900   83     160/ 12/ 13 1017.8F
BUOY 41004       2000   82 84  190/  8/ 10 1016.6F   3/ 7   3/ 7
BUOY 41008       2000   84 87  140/  6/  8 1017.2F   3/ 6   3/120/ 6
5E ST. MARYS GA  2000      86                N/A     2/ 7
FRYING PAN BUOY  NOT AVBL
BUOY 41025       2000          VRB 19/ 23  1015.2F   4/ 5   2/160/ 7
CAPE LOOKOUT NC  1900   81     180/ 11/ 12 1016.7R
BUOY 41002       1856   82 83  230/ 17/ 19 1019.5F   4/ 5   2/120/10
BUOY 41010       2000   80 83  230/ 10/ 12 1019.3F   4/ 7   3/130/ 7
BUOY 41012       NOT AVBL
ST AUGUSTINE FL  2000   83     120/ 10/ 11 1018.1F
CAPERS NEARSHORE 1900   84     170/ 12/ 14   N/A
FRIPP NEARSHORE  NOT AVBL


$$


USA.gov is the U.S. government's official web portal to all federal, state and local government web resources and services.